| time (UTC) | temp F | wind direction | speed knots | gust knots | rain 1hr in | rain 24hr in | rain mn in | humidity % | barometer mb |
| 20260507003005 | 82 | 120 | 3.5 | 12.2 | 0.00 | 0.00 | 0.00 | 85 | 1005.5 |
| 20260507001510 | 82 | 208 | 5.2 | 10.4 | 0.00 | 0.00 | 0.00 | 84 | 1005.4 |
| 20260507000004 | 83 | 127 | 5.2 | 11.3 | 0.00 | 0.00 | 0.00 | 83 | 1005.2 |
| 20260506234504 | 84 | 135 | 5.2 | 11.3 | 0.00 | 0.00 | 0.00 | 82 | 1005.1 |
| 20260506233003 | 85 | 128 | 3.5 | 8.7 | 0.00 | 0.00 | 0.00 | 81 | 1005.0 |
| 20260506231502 | 85 | 171 | 2.6 | 7.8 | 0.00 | 0.00 | 0.00 | 80 | 1004.8 |
| 20260506230002 | 86 | 24 | 2.6 | 9.6 | 0.00 | 0.00 | 0.00 | 80 | 1004.7 |
| 20260506224502 | 86 | 135 | 3.5 | 10.4 | 0.00 | 0.00 | 0.00 | 79 | 1004.7 |
| 20260506223101 | 86 | 112 | 2.6 | 8.7 | 0.00 | 0.00 | 0.00 | 79 | 1004.8 |
| 20260506221600 | 86 | 96 | 2.6 | 8.7 | 0.00 | 0.00 | 0.00 | 80 | 1004.8 |
| 20260506220100 | 86 | 107 | 5.2 | 10.4 | 0.00 | 0.00 | 0.00 | 78 | 1004.8 |
| 20260506214559 | 87 | 123 | 1.7 | 10.4 | 0.00 | 0.00 | 0.00 | 77 | 1004.7 |
| 20260506213058 | 88 | 138 | 3.5 | 12.2 | 0.00 | 0.00 | 0.00 | 76 | 1004.7 |
| 20260506211559 | 88 | 126 | 7.0 | 13.0 | 0.00 | 0.00 | 0.00 | 76 | 1004.6 |
| 20260506210058 | 88 | 142 | 7.0 | 13.9 | 0.00 | 0.00 | 0.00 | 76 | 1004.6 |
| 20260506204558 | 90 | 194 | 7.0 | 12.2 | 0.00 | 0.00 | 0.00 | 73 | 1004.8 |
| 20260506203056 | 90 | 132 | 6.1 | 13.9 | 0.00 | 0.00 | 0.00 | 72 | 1005.0 |
| 20260506201617 | 91 | 144 | 7.0 | 16.5 | 0.00 | 0.00 | 0.00 | 71 | 1005.1 |
| 20260506200052 | 91 | 182 | 8.7 | 13.9 | 0.00 | 0.00 | 0.00 | 70 | 1005.4 |
| 20260506194552 | 90 | 124 | 8.7 | 14.8 | 0.00 | 0.00 | 0.00 | 72 | 1005.5 |
| 20260506193052 | 90 | 150 | 8.7 | 18.2 | 0.00 | 0.00 | 0.00 | 72 | 1005.6 |
| 20260506191547 | 90 | 155 | 7.8 | 12.2 | 0.00 | 0.00 | 0.00 | 72 | 1005.7 |
| 20260506190045 | 90 | 199 | 7.8 | 13.9 | 0.00 | 0.00 | 0.00 | 72 | 1005.8 |
| 20260506184550 | 90 | 161 | 7.0 | 13.0 | 0.00 | 0.00 | 0.00 | 73 | 1005.9 |
| 20260506183041 | 89 | 211 | 7.0 | 11.3 | 0.00 | 0.00 | 0.00 | 75 | 1006.0 |
| 20260506181540 | 88 | 149 | 7.0 | 15.6 | 0.00 | 0.00 | 0.00 | 76 | 1006.2 |
| 20260506180039 | 88 | 196 | 7.0 | 13.9 | 0.00 | 0.00 | 0.00 | 75 | 1006.4 |
| 20260506174536 | 88 | 153 | 7.0 | 13.0 | 0.00 | 0.00 | 0.00 | 75 | 1006.4 |
| 20260506173039 | 87 | 159 | 7.8 | 13.0 | 0.00 | 0.00 | 0.00 | 77 | 1006.6 |
| 20260506171542 | 86 | 155 | 7.0 | 13.0 | 0.00 | 0.00 | 0.00 | 78 | 1006.9 |
| 20260506170030 | 86 | 169 | 7.0 | 11.3 | 0.00 | 0.00 | 0.00 | 76 | 1007.0 |
| 20260506164529 | 87 | 177 | 7.0 | 14.8 | 0.00 | 0.00 | 0.00 | 76 | 1006.8 |
| 20260506163038 | 85 | 216 | 7.8 | 13.9 | 0.00 | 0.00 | 0.00 | 78 | 1006.8 |
| 20260506161527 | 86 | 174 | 7.0 | 10.4 | 0.00 | 0.00 | 0.00 | 77 | 1006.8 |
| 20260506160027 | 86 | 182 | 6.1 | 9.6 | 0.00 | 0.00 | 0.00 | 78 | 1006.5 |
| 20260506154530 | 86 | 142 | 4.3 | 11.3 | 0.00 | 0.00 | 0.00 | 78 | 1006.5 |
| 20260506153022 | 85 | 185 | 6.1 | 9.6 | 0.00 | 0.00 | 0.00 | 79 | 1006.4 |
| 20260506151518 | 83 | 183 | 3.5 | 6.1 | 0.00 | 0.00 | 0.00 | 82 | 1006.6 |
| 20260506150015 | 83 | 157 | 1.7 | 5.2 | 0.00 | 0.00 | 0.00 | 83 | 1007.0 |
| 20260506144513 | 82 | 192 | 3.5 | 6.1 | 0.00 | 0.00 | 0.00 | 84 | 1007.0 |
| 20260506143015 | 82 | 192 | 0.9 | 7.8 | 0.00 | 0.00 | 0.00 | 85 | 1007.1 |
| 20260506141507 | 81 | 202 | 1.7 | 7.0 | 0.00 | 0.00 | 0.00 | 87 | 1007.1 |
| 20260506140004 | 80 | 195 | 0.9 | 5.2 | 0.00 | 0.00 | 0.00 | 87 | 1007.1 |
| 20260506134501 | 80 | 205 | 0.9 | 7.0 | 0.00 | 0.00 | 0.00 | 88 | 1007.0 |
| 20260506133103 | 80 | 195 | 2.6 | 7.8 | 0.00 | 0.00 | 0.00 | 88 | 1006.7 |
| 20260506131558 | 80 | 178 | 2.6 | 7.8 | 0.00 | 0.00 | 0.00 | 88 | 1006.5 |
| 20260506130056 | 79 | 192 | 3.5 | 7.8 | 0.00 | 0.00 | 0.00 | 89 | 1006.4 |
| 20260506124554 | 79 | 195 | 3.5 | 11.3 | 0.00 | 0.00 | 0.00 | 89 | 1006.0 |
| 20260506123052 | 79 | 177 | 4.3 | 11.3 | 0.00 | 0.00 | 0.00 | 89 | 1005.7 |
| 20260506121551 | 79 | 178 | 4.3 | 9.6 | 0.00 | 0.00 | 0.00 | 89 | 1005.5 |
| 20260506120107 | 79 | 182 | 1.7 | 13.0 | 0.00 | 0.00 | 0.00 | 89 | 1005.2 |
| 20260506114603 | 79 | 154 | 5.2 | 11.3 | 0.00 | 0.00 | 0.00 | 89 | 1004.9 |
| 20260506113049 | 79 | 184 | 5.2 | 13.9 | 0.00 | 0.00 | 0.00 | 89 | 1004.6 |
| 20260506111552 | 79 | 180 | 4.3 | 12.2 | 0.00 | 0.00 | 0.00 | 89 | 1004.4 |
| 20260506110048 | 79 | 160 | 7.8 | 12.2 | 0.00 | 0.00 | 0.00 | 89 | 1004.3 |
| 20260506104547 | 79 | 164 | 6.1 | 10.4 | 0.00 | 0.00 | 0.00 | 89 | 1004.4 |
| 20260506103043 | 79 | 191 | 6.1 | 10.4 | 0.00 | 0.00 | 0.00 | 89 | 1004.4 |
| 20260506101542 | 79 | 164 | 4.3 | 9.6 | 0.00 | 0.00 | 0.00 | 89 | 1004.5 |
| 20260506100043 | 79 | 192 | 5.2 | 13.0 | 0.00 | 0.00 | 0.00 | 89 | 1004.5 |
| 20260506094544 | 79 | 180 | 5.2 | 13.9 | 0.00 | 0.00 | 0.00 | 89 | 1004.4 |
| 20260506093100 | 79 | 127 | 5.2 | 11.3 | 0.00 | 0.00 | 0.00 | 89 | 1004.5 |
| 20260506091536 | 79 | 163 | 2.6 | 9.6 | 0.00 | 0.00 | 0.00 | 89 | 1004.6 |
| 20260506090039 | 78 | 132 | 6.1 | 12.2 | 0.00 | 0.00 | 0.00 | 89 | 1004.4 |
| 20260506084532 | 78 | 161 | 4.3 | 13.9 | 0.00 | 0.00 | 0.00 | 89 | 1004.6 |
| 20260506083031 | 78 | 127 | 6.1 | 12.2 | 0.00 | 0.00 | 0.00 | 89 | 1004.8 |
| 20260506081528 | 78 | 148 | 3.5 | 13.9 | 0.00 | 0.00 | 0.00 | 88 | 1004.8 |
| 20260506073021 | 79 | 144 | 5.2 | 12.2 | 0.00 | 0.00 | 0.00 | 88 | 1005.4 |
| 20260506071518 | 79 | 148 | 5.2 | 13.0 | 0.00 | 0.00 | 0.00 | 88 | 1005.6 |
| 20260506061509 | 79 | 163 | 5.2 | 13.9 | 0.00 | 0.00 | 0.00 | 87 | 1006.2 |
| 20260506044551 | 80 | 180 | 6.1 | 12.2 | 0.00 | 0.00 | 0.00 | 86 | 1007.0 |
| 20260506043052 | 80 | 155 | 3.5 | 8.7 | 0.00 | 0.00 | 0.00 | 86 | 1006.9 |
| 20260506041603 | 80 | 147 | 3.5 | 10.4 | 0.00 | 0.00 | 0.00 | 85 | 1006.9 |
| 20260506040052 | 80 | 169 | 5.2 | 9.6 | 0.00 | 0.00 | 0.00 | 85 | 1006.9 |
| 20260506034546 | 80 | 158 | 6.1 | 13.0 | 0.00 | 0.00 | 0.00 | 85 | 1006.6 |
| 20260506033049 | 80 | 166 | 6.1 | 12.2 | 0.00 | 0.00 | 0.00 | 86 | 1006.5 |
| 20260506031547 | 80 | 180 | 6.1 | 13.0 | 0.00 | 0.00 | 0.00 | 86 | 1006.2 |
| 20260506030043 | 80 | 161 | 6.1 | 14.8 | 0.00 | 0.00 | 0.00 | 86 | 1006.0 |
| 20260506024542 | 80 | 186 | 7.0 | 10.4 | 0.00 | 0.00 | 0.00 | 86 | 1005.8 |
| 20260506023051 | 80 | 138 | 7.0 | 13.0 | 0.00 | 0.00 | 0.00 | 86 | 1005.6 |
| 20260506021542 | 80 | 218 | 7.8 | 13.0 | 0.00 | 0.00 | 0.00 | 85 | 1005.3 |
| 20260506020110 | 80 | 161 | 9.6 | 13.9 | 0.00 | 0.00 | 0.00 | 85 | 1004.9 |
| 20260506014541 | 80 | 169 | 8.7 | 16.5 | 0.00 | 0.00 | 0.00 | 85 | 1004.7 |
| 20260506013040 | 80 | 178 | 7.0 | 13.9 | 0.00 | 0.00 | 0.00 | 85 | 1004.5 |
| 20260506011545 | 80 | 153 | 9.6 | 17.4 | 0.00 | 0.00 | 0.00 | 85 | 1004.1 |
| 20260506010039 | 80 | 194 | 7.0 | 14.8 | 0.00 | 0.00 | 0.00 | 84 | 1004.0 |
| 20260506004542 | 81 | 153 | 10.4 | 16.5 | 0.00 | 0.00 | 0.00 | 84 | 1004.0 |